Location: Unspecified
(47.9110°N, 14.3980°E)
Time: 06:29:51
(UTC+00:00)

SPOT 5 - Pass Details

Date: 06 August 2020
Orbit: 624 x 814 km, 98.3° (Epoch: 23 September)

Event Time Altitude Azimuth Distance (km) Brightness Sun altitude
Exits shadow 20:38:05 34° 162° (SSE) 1,044 3.2 -17.5°
Maximum altitude 20:39:58 86° 75° (ENE) 633 2.5 -17.7°
Drops below altitude 10° 20:44:20 10° 347° (NNW) 2,015 6.2 -18.1°
Sets 20:46:32 0° 347° (NNW) 2,937 7.3 -18.3°
